Date String (YYYY-MM-DD hh:mm:ss) UTC,Instrument flags,Ambient pressure (hPa),Sample flow (lpm),Bypass flow (lpm),Sample temperature (°C),Ambient temperature (°C),ASC tube jacket temperature (°C),LED temperature (°C),Box temperature (°C),Sample RH (%),Span deviation,Mass concentration (μg/m³),Mass concentration (μg/m³),Mass concentration (μg/m³)
DateTimeUTC,F1_M11,P_M11,Q1_M11,Q2_M11,T1_M11,T2_M11,T3_M11,T4_M11,T5_M11,U1_M11,ZSPAN_M11,X0_M11,X2_M11,X1_M11
2022-11-23 06:00:00,,0824.6,5.00,0.00,23.3,21.8,00.0,32.3,25.0,07.6,0000.0,0008.03,0003.16,0002.43
2022-11-23 06:01:00,,0824.5,5.00,0.00,23.3,21.7,00.0,32.3,25.0,07.5,0000.0,0008.22,0003.19,0002.43
2022-11-23 06:02:00,,0824.6,5.00,0.00,23.2,21.6,00.0,32.3,25.0,07.2,0000.0,0008.06,0003.17,0002.43
2022-11-23 06:03:00,,0824.9,5.00,0.00,23.2,21.6,00.0,32.3,25.0,07.1,0000.0,0007.88,0003.14,0002.41
2022-11-23 06:04:00,,0824.8,5.00,0.00,23.2,21.6,00.0,32.3,25.0,07.3,0000.0,0007.85,0003.12,0002.39
2022-11-23 06:05:00,,0824.6,4.99,0.00,23.2,21.7,00.0,32.2,24.9,07.5,0000.0,0007.55,0003.14,0002.38
2022-11-23 06:06:00,,0824.7,5.00,0.00,23.2,21.7,00.0,32.2,24.9,07.3,0000.0,0006.56,0003.13,0002.37
2022-11-23 06:07:00,,0824.6,5.00,0.00,23.2,21.7,00.0,32.2,25.0,07.3,0000.0,0006.50,0003.13,0002.38
2022-11-23 06:08:00,,0824.8,5.01,0.00,23.2,21.7,00.0,32.2,25.0,07.4,0000.0,0006.74,0003.16,0002.39
2022-11-23 06:09:00,,0824.5,5.02,0.00,23.2,21.7,00.0,32.2,25.1,07.3,0000.0,0007.78,0003.20,0002.40
2022-11-23 06:10:00,,0824.6,4.98,0.00,23.2,21.7,00.0,32.2,25.1,07.3,0000.0,0007.92,0003.25,0002.44
2022-11-23 06:11:00,,0824.7,5.02,0.00,23.2,21.7,00.0,32.2,25.0,07.3,0000.0,0007.83,0003.26,0002.46
2022-11-23 06:12:00,,0824.7,4.99,0.00,23.2,21.7,00.0,32.2,25.0,07.3,0000.0,0007.75,0003.27,0002.48
2022-11-23 06:13:00,,0824.4,4.99,0.00,23.2,21.8,00.0,32.2,25.0,07.2,0000.0,0007.78,0003.28,0002.51
2022-11-23 06:14:00,,0824.4,5.01,0.00,23.2,21.8,00.0,32.2,25.1,07.2,0000.0,0007.82,0003.30,0002.53
2022-11-23 06:15:00,,0824.5,5.01,0.00,23.2,21.8,00.0,32.2,25.0,07.2,0000.0,0007.92,0003.32,0002.56
2022-11-23 06:16:00,,0824.6,4.98,0.00,23.2,21.8,00.0,32.2,25.0,07.2,0000.0,0008.01,0003.34,0002.60
2022-11-23 06:17:00,,0824.8,5.00,0.00,23.2,21.8,00.0,32.2,25.0,07.3,0000.0,0008.05,0003.38,0002.62
2022-11-23 06:18:00,,0824.6,5.01,0.00,23.2,21.9,00.0,32.2,25.0,07.3,0000.0,0007.99,0003.35,0002.62
2022-11-23 06:19:00,,0824.7,5.00,0.00,23.2,21.9,00.0,32.2,25.0,07.3,0000.0,0007.78,0003.29,0002.62
2022-11-23 06:20:00,,0824.4,5.00,0.00,23.2,21.9,00.0,32.2,25.0,08.3,0000.0,0006.83,0003.25,0002.62
2022-11-23 06:21:00,,0824.4,5.00,0.00,23.2,21.9,00.0,32.2,25.1,07.9,0000.0,0006.71,0003.26,0002.61
2022-11-23 06:22:00,,0824.5,5.00,0.00,23.2,21.9,00.0,32.2,25.1,07.7,0000.0,0007.20,0003.24,0002.58
2022-11-23 06:23:00,,0824.5,5.00,0.00,23.2,21.9,00.0,32.2,25.0,08.1,0000.0,0008.04,0003.27,0002.57
2022-11-23 06:24:00,,0824.8,4.99,0.00,23.2,21.9,00.0,32.2,25.0,08.7,0000.0,0008.65,0003.29,0002.57
2022-11-23 06:25:00,,0824.5,5.00,0.00,23.2,21.9,00.0,32.2,25.1,08.4,0000.0,0009.04,0003.29,0002.58
2022-11-23 06:26:00,,0824.7,5.01,0.00,23.2,21.8,00.0,32.2,25.1,08.2,0000.0,0009.04,0003.30,0002.60
2022-11-23 06:27:00,,0824.4,4.99,0.00,23.2,21.8,00.0,32.2,25.1,08.2,0000.0,0009.34,0003.30,0002.62
2022-11-23 06:28:00,,0824.4,4.99,0.00,23.2,21.8,00.0,32.2,25.0,08.3,0000.0,0009.44,0003.30,0002.64
2022-11-23 06:29:00,,0824.4,5.00,0.00,23.2,21.8,00.0,32.2,25.0,08.3,0000.0,0009.56,0003.35,0002.66
2022-11-23 06:30:00,,0824.5,5.00,0.00,23.2,21.9,00.0,32.2,25.1,08.2,0000.0,0009.83,0003.39,0002.69
2022-11-23 06:31:00,,0824.5,5.01,0.00,23.2,21.9,00.0,32.2,25.0,08.2,0000.0,0010.07,0003.42,0002.71
2022-11-23 06:32:00,,0824.4,5.00,0.00,23.2,21.9,00.0,32.2,24.9,08.3,0000.0,0009.99,0003.41,0002.73
2022-11-23 06:33:00,,0824.4,4.99,0.00,23.2,21.8,00.0,32.2,25.0,08.6,0000.0,0009.71,0003.42,0002.76
2022-11-23 06:34:00,,0824.4,5.01,0.00,23.2,21.9,00.0,32.2,25.0,08.3,0000.0,0008.99,0003.41,0002.78
2022-11-23 06:35:00,,0824.3,5.00,0.00,23.2,21.9,00.0,32.2,25.0,08.2,0000.0,0008.57,0003.42,0002.80
2022-11-23 06:36:00,,0824.4,4.99,0.00,23.2,21.8,00.0,32.2,25.0,08.1,0000.0,0008.01,0003.44,0002.80
2022-11-23 06:37:00,,0824.3,5.00,0.00,23.2,21.8,00.0,32.1,25.0,07.9,0000.0,0008.38,0003.44,0002.77
2022-11-23 06:38:00,,0824.3,5.01,0.00,23.2,21.8,00.0,32.2,25.0,07.7,0000.0,0008.55,0003.41,0002.72
2022-11-23 06:39:00,,0824.3,5.01,0.00,23.2,21.8,00.0,32.2,25.0,07.8,0000.0,0008.70,0003.38,0002.67
2022-11-23 06:40:00,,0824.4,4.99,0.00,23.2,21.9,00.0,32.2,25.0,07.7,0000.0,0008.73,0003.32,0002.63
2022-11-23 06:41:00,,0824.3,4.99,0.00,23.2,21.9,00.0,32.2,25.1,07.9,0000.0,0008.72,0003.29,0002.60
2022-11-23 06:42:00,,0824.2,5.02,0.00,23.2,21.9,00.0,32.2,25.1,08.0,0000.0,0008.40,0003.28,0002.59
2022-11-23 06:43:00,,0824.2,5.01,0.00,23.2,21.9,00.0,32.2,25.1,07.8,0000.0,0008.65,0003.27,0002.57
2022-11-23 06:44:00,,0824.2,5.00,0.00,23.2,21.9,00.0,32.2,25.0,07.8,0000.0,0008.62,0003.28,0002.53
2022-11-23 06:45:00,,0824.2,5.00,0.00,23.2,21.8,00.0,32.2,25.0,07.9,0000.0,0008.60,0003.27,0002.51
2022-11-23 06:46:00,,0824.2,5.00,0.00,23.2,21.8,00.0,32.2,25.0,07.9,0000.0,0008.69,0003.29,0002.49
2022-11-23 06:47:00,,0824.1,5.01,0.00,23.2,21.8,00.0,32.1,24.9,07.9,0000.0,0008.93,0003.28,0002.47
2022-11-23 06:48:00,,0824.2,4.99,0.00,23.2,21.8,00.0,32.1,24.9,07.7,0000.0,0008.69,0003.27,0002.48
2022-11-23 06:49:00,,0824.2,4.99,0.00,23.2,21.8,00.0,32.2,25.0,07.6,0000.0,0007.98,0003.27,0002.49
2022-11-23 06:50:00,,0824.2,5.01,0.00,23.2,21.8,00.0,32.1,24.9,07.7,0000.0,0007.42,0003.27,0002.49
2022-11-23 06:51:00,,0824.3,5.00,0.00,23.2,21.7,00.0,32.1,24.9,07.7,0000.0,0007.22,0003.30,0002.51
2022-11-23 06:52:00,,0824.2,4.98,0.00,23.2,21.7,00.0,32.1,24.9,07.6,0000.0,0007.17,0003.30,0002.51
2022-11-23 06:53:00,,0824.1,5.00,0.00,23.2,21.7,00.0,32.1,24.9,07.5,0000.0,0007.02,0003.27,0002.50
2022-11-23 06:54:00,,0824.1,5.00,0.00,23.2,21.7,00.0,32.1,24.9,07.5,0000.0,0007.95,0003.27,0002.50
2022-11-23 06:55:00,,0824.1,5.00,0.00,23.2,21.7,00.0,32.1,24.9,07.5,0000.0,0008.07,0003.25,0002.51
2022-11-23 06:56:00,,0824.1,5.00,0.00,23.2,21.7,00.0,32.1,24.8,07.5,0000.0,0008.11,0003.23,0002.50
2022-11-23 06:57:00,,0824.1,5.00,0.00,23.1,21.7,00.0,32.1,24.8,07.6,0000.0,0007.96,0003.20,0002.49
2022-11-23 06:58:00,,0824.1,5.00,0.00,23.1,21.7,00.0,32.1,24.8,07.6,0000.0,0008.56,0003.19,0002.48
2022-11-23 06:59:00,,0824.1,5.00,0.00,23.1,21.6,00.0,32.1,24.8,07.6,0000.0,0008.96,0003.22,0002.47
